Meteo Giornale » Osservazioni meteo Italia » Cervia

ore: 15:55 - Osservazioni Meteo Cervia
Lat. 44° 13' N Lon. 12° 18' E Alt. 6 metri s.l.m.

molto_nuvoloso Europe/Rome

17 °C

Molto Nuvoloso

Temp. 24 Ore

14 °C

18 °C

Nord-Ovest

11.1 Km/h

Dew point 15 °C

Umidità 88 %

Visibilità  10 Km

Il sole sorge alle ore 07:00

Il sole tramonta alle ore 19:03

Data e Ora Cielo e Fenomeni T °C DP °C Um. % Pres. hPa Vis. km Vento km/h
Oggi h: 15:55 molto_nuvoloso Molto Nuvoloso 17 15 88 1019 10 NO 11.1
Oggi h: 13:55 coperto_pioggia Pioggia Debole 16 15 93 1019 10 N/NO 13
Oggi h: 12:55 coperto_pioggia Pioggia Debole 16 15 93 1019 6 NO 18.5
Oggi h: 11:55 coperto_pioggia Pioggia Debole Foschia 16 15 93 1019 3 NO 9.3
Oggi h: 09:55 molto_nuvoloso Molto Nuvoloso 15 14 93 1018 10 NO 20.3
Oggi h: 08:55 molto_nuvoloso Molto Nuvoloso 14 13 93 1018 10 NO 24
Oggi h: 07:55 molto_nuvoloso Molto Nuvoloso 14 13 93 1018 10 NO 18.5
Oggi h: 06:55 nuvoloso Nuvoloso 14 13 93 1017 10 O/NO 20.3
Oggi h: 05:55 molto_nuvoloso Molto Nuvoloso 14 12 87 1017 10 O/NO 25.9
Oggi h: 04:55 coperto Coperto 14 12 87 1018 10 O/NO 20.3
Oggi h: 03:55 molto_nuvoloso Molto Nuvoloso 14 12 87 1018 10 O/NO 20.3
Oggi h: 02:55 molto_nuvoloso Molto Nuvoloso 14 13 93 1018 10 O/NO 18.5
Oggi h: 01:55 coperto_pioggia Pioggia Debole 15 13 87 1018 10 NO 20.3
Oggi h: 00:55 coperto_pioggia Pioggia Debole 14 13 93 1018 10 O/NO 16.7
Ieri h: 23:55 molto_nuvoloso Molto Nuvoloso 15 13 87 1019 10 O/NO 14.8
Ieri h: 22:55 molto_nuvoloso Molto Nuvoloso 14 13 93 1018 10 O 7.4
Ieri h: 21:55 sereno Sereno 14 13 93 1018 10 N 5.5
Ieri h: 20:55 sereno Sereno 15 15 100 1018 10 N 3.7
Ieri h: 19:55 poco_nuvoloso Poco Nuvoloso 16 16 100 1018 10 N 0
Ieri h: 18:55 poco_nuvoloso Poco Nuvoloso 18 15 82 1018 10 N 0
Ieri h: 17:55 nuvoloso Nuvoloso 17 16 93 1018 10 N 0